Regional Weather Roundup
Issued by NWS

Home | Current Version | Previous Version | Graphics & Text | Print | Product List | Glossary On
Versions: 1 2 3 4 5 6 7 8 9 10 11 12 13 14 15 16 17 18 19 20 21 22 23 24 25 26 27 28 29 30 31 32 33 34 35 36 37 38 39 40 41 42 43 44 45 46 47 48 49 50
000
ASUS43 KDTX 060210
RWRMI
MICHIGAN HOURLY REGIONAL WEATHER ROUNDUP
NATIONAL WEATHER SERVICE DETROIT/PONTIAC MI
900 PM EST MON DEC 05 2016

NOTE: "FAIR" INDICATES FEW OR NO CLOUDS BELOW 12,000 FEET WITH NO
SIGNIFICANT WEATHER AND/OR OBSTRUCTION TO VISIBILITY.

MIZ047>049-052>055-059>063-066>070-074>076-081>083-060300-
SOUTHEAST LOWER MICHIGAN

CITY           SKY/WX    TMP DP  RH WIND       PRES   REMARKS
ADRIAN         CLOUDY    29  28  96 CALM      30.05F
ALMA           CLOUDY    32  31  94 W6        30.04F WCI  27
ANN ARBOR      CLEAR     26  25  96 CALM      30.05F
BAD AXE        CLEAR     28  27  94 CALM      30.05S
CARO           CLEAR     29  28  98 CALM      30.05R FOG
DETROIT CITY   CLEAR     31  28  89 S3        30.07S
DETROIT        PTCLDY    31  28  89 S5        30.07F WCI  26
FLINT          PTCLDY    32  28  85 SW3       30.06R
GROSSE ILE     CLEAR     33  29  86 CALM      30.06F
HILLSDALE      CLOUDY    28  28 100 CALM      30.01F FOG
HOWELL         CLOUDY    30  27  88 S5        30.05R WCI  25

CITY           SKY/WX    TMP DP  RH WIND       PRES   REMARKS
JACKSON        CLEAR     30  26  85 CALM      30.04R
LAMBERTVILLE   CLEAR     29  26  91 CALM      30.06F FOG
LANSING        PTCLDY    31  27  85 SE3       30.06R
LAPEER         NOT AVBL
MASON          CLEAR     31  29  94 S3        30.05S
MONROE         CLEAR     28  28  99 CALM      30.06F
MT. CLEMENS    PTCLDY    29  26  90 S6        30.05R WCI  22
PONTIAC        PTCLDY    31  27  85 S5        30.04R WCI  26
PORT HOPE        N/A     31  29  92 SW3       30.03S
PORT HURON     CLEAR     27  25  93 CALM      30.07R
TRI CITIES     PTCLDY    34  31  88 SW8       30.06R WCI  27
MIDLAND        FAIR      34  30  86 SW5       30.04S WCI  30
TROY           CLEAR     33  28  81 SW3       30.08R
SAGINAW HB     CLOUDY    34  30  86 SW5       30.05R WCI  30
$$
MIZ043>046-050>051-056>058-064>065-071>073-077>080-060300-
SOUTHWEST LOWER MICHIGAN

CITY           SKY/WX    TMP DP  RH WIND       PRES   REMARKS
BATTLE CREEK   PTCLDY    31  29  92 S6        30.04R WCI  25
BENTON HARBOR  CLOUDY    33  29  85 SE9       30.01F FOG     WCI  25
BIG RAPIDS     CLOUDY    35  31  85 CALM      30.00F
COLDWATER      CLEAR     30  28  91 CALM      30.02F
FREMONT        CLOUDY    34  28  80 SE5       30.00S WCI  30
HOLLAND        CLOUDY    33  29  85 SE7       30.03R WCI  27
GRAND RAPIDS   MOCLDY    31  27  85 S6        30.04R WCI  25
IONIA          FAIR      29  28  96 E5        30.03R WCI  24
KALAMAZOO      CLOUDY    32  27  81 SE6       30.04R WCI  26
LUDINGTON      CLOUDY    39  34  84 S7        29.99S WCI  34
MARSHALL       CLEAR     30  28  93 SE3       30.03S
MOUNT PLEASANT PTCLDY    32  31  95 CALM      30.03S
MUSKEGON       CLOUDY    34  30  85 SE7       30.02S WCI  28
SOUTH HAVEN    CLOUDY    33  32  94 SE3       30.02F
$$
MIZ016>042-060300-
NORTHERN LOWER MICHIGAN

CITY           SKY/WX    TMP DP  RH WIND       PRES   REMARKS
ALPENA         CLOUDY    33  29  85 CALM      30.03S
BEAVER ISLAND  CLOUDY    41  34  76 SW9       29.97S
BELLAIRE       MOCLDY    31  31  98 CALM      30.00F
CADILLAC       CLEAR     32  30  91 S6        29.97F WCI  27
CHARLEVOIX     CLOUDY    38  32  80 S5        30.02S WCI  34
FRANKFORT      MOCLDY    40  36  83 S5        29.98S
GAYLORD        CLOUDY    31  27  85 CALM      29.98S
GRAYLING       PTCLDY    28  26  92 CALM      29.99F
HARBOR SPRINGS CLOUDY    37  32  81 S6        30.00S WCI  33
HOUGHTON LAKE  CLOUDY    34  29  82 SW3       30.00S
MANISTEE       MOCLDY    32  30  92 E5        29.98F WCI  27
OSCODA         PTCLDY    29  28  94 CALM      30.03S
PELLSTON       CLOUDY    37  30  75 S5        30.00R WCI  33
ROGERS CITY    CLOUDY    36  31  82 S5        30.02F WCI  32
TRAVERSE CITY  CLEAR     33  30  88 CALM      29.98F
$$
MIZ007>008-015-060300-
EASTERN UPPER MICHIGAN

CITY           SKY/WX    TMP DP  RH WIND       PRES   REMARKS
KINROSS        CLOUDY    31  30  96 CALM      29.98S
MACKINAC ISLAN CLOUDY    38  32  78 S7        29.98S WCI  33
NEWBERRY       CLOUDY    31  30  97 CALM      29.96R
S. S. MARIE    CLEAR     30  26  85 SW5       29.98R WCI  25
MUNISING         N/A     34  32  92 S7        29.93R WCI  28
$$
MIZ004>006-011>014-085-060300-
CENTRAL UPPER MICHIGAN

CITY           SKY/WX    TMP DP  RH WIND       PRES   REMARKS
MANISTIQUE     MOCLDY    35  33  92 W3        29.96R
ESCANABA       CLOUDY    34  31  88 SW6       29.95S WCI  29
SAWYER-GWINN   MOCLDY    30  30 100 SW10      29.91R WCI  21
$$
MIZ001>003-009>011-084-060300-
WESTERN UPPER MICHIGAN

CITY           SKY/WX    TMP DP  RH WIND       PRES   REMARKS
IRON MOUNTAIN  CLOUDY    32  28  85 S6        29.91R WCI  26
HOUGHTON       CLOUDY    34  28  79 E6        29.86S WCI  29
COPPER HARBOR    N/A     32  31  96 CALM      29.89R
IRONWOOD       CLOUDY    35  33  92 E9        29.76F WCI  28
$$

ABBREVIATIONS USED IN REMARKS
   TC - TEMPERATURE IN CELSIUS
  WCI - WIND CHILL INDEX
   HX - HEAT INDEX
  VSB - VISIBILITY




USA.gov is the U.S. government's official web portal to all federal, state and local government web resources and services.